Time,TemperatureF,DewpointF,PressureIn,WindDirection,WindDirectionDegrees,WindSpeedMPH,WindSpeedGustMPH,Humidity,HourlyPrecipIn,Conditions,Clouds,dailyrainin,SoftwareType,DateUTC
2013-03-10 00:01:00,41.0,23.0,30.24,SW,227,1.0,5.0,49,0.00,,,0.01,,2013-03-10 05:01:00,
2013-03-10 00:11:00,41.0,23.0,30.24,SW,227,1.0,5.0,49,0.00,,,0.01,,2013-03-10 05:11:00,
2013-03-10 00:22:00,41.0,23.0,30.24,SW,218,1.0,3.0,48,0.00,,,0.01,,2013-03-10 05:22:00,
2013-03-10 00:32:00,41.0,23.0,30.24,North,0,0.0,4.0,48,0.00,,,0.01,,2013-03-10 05:32:00,
2013-03-10 00:42:00,41.0,22.0,30.24,SW,235,1.0,4.0,47,0.00,,,0.01,,2013-03-10 05:42:00,
2013-03-10 00:52:00,41.0,22.0,30.24,SW,235,1.0,4.0,47,0.00,,,0.01,,2013-03-10 05:52:00,
2013-03-10 01:02:00,42.0,23.0,30.23,WSW,237,1.0,10.0,46,0.00,,,0.01,,2013-03-10 06:02:00,
2013-03-10 01:11:00,41.0,22.0,30.23,SW,221,1.0,6.0,46,0.00,,,0.01,,2013-03-10 06:11:00,
2013-03-10 01:22:00,41.0,22.0,30.23,SW,221,1.0,6.0,46,0.00,,,0.01,,2013-03-10 06:22:00,
2013-03-10 01:32:00,41.0,22.0,30.23,SW,221,1.0,6.0,46,0.00,,,0.01,,2013-03-10 06:32:00,
2013-03-10 01:42:00,42.0,23.0,30.23,SW,230,2.0,9.0,46,0.00,,,0.01,,2013-03-10 06:42:00,
2013-03-10 01:52:00,42.0,23.0,30.23,SW,230,2.0,9.0,46,0.00,,,0.01,,2013-03-10 06:52:00,
2013-03-10 03:02:00,41.0,23.0,30.23,SW,227,1.0,5.0,48,0.00,,,0.01,,2013-03-10 07:02:00,
2013-03-10 03:11:00,41.0,22.0,30.22,WSW,248,1.0,7.0,47,0.00,,,0.01,,2013-03-10 07:11:00,
2013-03-10 03:21:00,41.0,22.0,30.22,WSW,248,1.0,7.0,47,0.00,,,0.01,,2013-03-10 07:21:00,
2013-03-10 03:32:00,40.0,22.0,30.22,WSW,251,1.0,6.0,48,0.00,,,0.01,,2013-03-10 07:32:00,
2013-03-10 03:42:00,40.0,22.0,30.22,SW,227,1.0,5.0,49,0.00,,,0.01,,2013-03-10 07:42:00,
2013-03-10 03:52:00,40.0,22.0,30.22,SW,227,1.0,5.0,49,0.00,,,0.01,,2013-03-10 07:52:00,
2013-03-10 04:01:00,40.0,23.0,30.21,SW,235,1.0,6.0,50,0.00,,,0.01,,2013-03-10 08:01:00,
2013-03-10 04:11:00,40.0,23.0,30.21,SW,236,1.0,10.0,50,0.00,,,0.01,,2013-03-10 08:11:00,
2013-03-10 04:21:00,40.0,23.0,30.21,SW,236,1.0,10.0,50,0.00,,,0.01,,2013-03-10 08:21:00,
2013-03-10 04:31:00,41.0,23.0,30.20,SW,233,1.0,7.0,49,0.00,,,0.01,,2013-03-10 08:31:00,
2013-03-10 04:42:00,40.0,22.0,30.19,SW,227,1.0,4.0,48,0.00,,,0.01,,2013-03-10 08:42:00,
2013-03-10 04:52:00,40.0,22.0,30.19,SW,227,1.0,4.0,48,0.00,,,0.01,,2013-03-10 08:52:00,
2013-03-10 05:01:00,40.0,22.0,30.20,North,0,0.0,5.0,49,0.00,,,0.01,,2013-03-10 09:01:00,
2013-03-10 05:11:00,40.0,22.0,30.20,North,0,0.0,5.0,49,0.00,,,0.01,,2013-03-10 09:11:00,
2013-03-10 05:21:00,40.0,22.0,30.20,North,0,0.0,5.0,49,0.00,,,0.01,,2013-03-10 09:21:00,
2013-03-10 05:31:00,40.0,23.0,30.20,SW,214,1.0,5.0,50,0.00,,,0.01,,2013-03-10 09:31:00,
2013-03-10 05:41:00,40.0,24.0,30.20,North,0,0.0,4.0,52,0.00,,,0.01,,2013-03-10 09:41:00,
2013-03-10 05:52:00,40.0,24.0,30.20,North,0,0.0,4.0,52,0.00,,,0.01,,2013-03-10 09:52:00,
2013-03-10 06:02:00,40.0,24.0,30.21,SW,234,1.0,4.0,52,0.00,,,0.01,,2013-03-10 10:02:00,
2013-03-10 06:11:00,40.0,24.0,30.21,SW,234,1.0,4.0,52,0.00,,,0.01,,2013-03-10 10:11:00,
2013-03-10 06:21:00,40.0,24.0,30.20,SW,219,2.0,6.0,52,0.00,,,0.01,,2013-03-10 10:21:00,
2013-03-10 06:32:00,40.0,24.0,30.20,WSW,245,2.0,6.0,53,0.00,,,0.01,,2013-03-10 10:32:00,
2013-03-10 06:42:00,41.0,26.0,30.20,SW,227,1.0,10.0,54,0.00,,,0.01,,2013-03-10 10:42:00,
2013-03-10 06:52:00,41.0,26.0,30.20,SW,227,1.0,10.0,54,0.00,,,0.01,,2013-03-10 10:52:00,
2013-03-10 07:01:00,41.0,26.0,30.20,SW,227,1.0,10.0,54,0.00,,,0.01,,2013-03-10 11:01:00,
2013-03-10 07:12:00,41.0,26.0,30.20,SW,227,1.0,10.0,54,0.00,,,0.01,,2013-03-10 11:12:00,
2013-03-10 07:21:00,41.0,26.0,30.20,SW,227,1.0,10.0,54,0.00,,,0.01,,2013-03-10 11:21:00,
2013-03-10 07:32:00,39.0,25.0,30.20,SW,226,2.0,8.0,56,0.00,,,0.01,,2013-03-10 11:32:00,
2013-03-10 07:42:00,39.0,25.0,30.20,SW,226,2.0,8.0,56,0.00,,,0.01,,2013-03-10 11:42:00,
2013-03-10 07:52:00,39.0,25.0,30.20,North,0,0.0,5.0,57,0.00,,,0.01,,2013-03-10 11:52:00,
2013-03-10 08:01:00,39.0,25.0,30.20,SW,217,1.0,5.0,57,0.00,,,0.01,,2013-03-10 12:01:00,
2013-03-10 08:11:00,39.0,25.0,30.20,SW,217,1.0,5.0,57,0.00,,,0.01,,2013-03-10 12:11:00,
2013-03-10 08:21:00,39.0,25.0,30.20,North,0,0.0,5.0,57,0.00,,,0.01,,2013-03-10 12:21:00,
2013-03-10 08:31:00,40.0,26.0,30.20,WSW,237,3.0,7.0,56,0.00,,,0.01,,2013-03-10 12:31:00,
2013-03-10 08:42:00,40.0,26.0,30.20,WSW,237,3.0,7.0,56,0.00,,,0.01,,2013-03-10 12:42:00,
2013-03-10 08:51:00,41.0,26.0,30.21,WSW,240,2.0,8.0,54,0.00,,,0.01,,2013-03-10 12:51:00,
2013-03-10 09:01:00,41.0,26.0,30.21,WSW,240,2.0,8.0,54,0.00,,,0.01,,2013-03-10 13:01:00,
2013-03-10 09:11:00,41.0,26.0,30.21,WSW,240,2.0,8.0,54,0.00,,,0.01,,2013-03-10 13:11:00,
2013-03-10 09:21:00,41.0,26.0,30.22,West,275,1.0,7.0,55,0.00,,,0.01,,2013-03-10 13:21:00,
2013-03-10 09:31:00,41.0,26.0,30.22,West,263,2.0,5.0,54,0.00,,,0.01,,2013-03-10 13:31:00,
2013-03-10 09:42:00,41.0,26.0,30.22,West,263,2.0,5.0,54,0.00,,,0.01,,2013-03-10 13:42:00,
2013-03-10 09:52:00,41.0,26.0,30.22,West,261,1.0,5.0,55,0.00,,,0.01,,2013-03-10 13:52:00,
2013-03-10 10:02:00,42.0,27.0,30.22,WSW,245,1.0,5.0,55,0.00,,,0.01,,2013-03-10 14:02:00,
2013-03-10 10:11:00,42.0,27.0,30.22,WSW,245,1.0,5.0,55,0.00,,,0.01,,2013-03-10 14:11:00,
2013-03-10 10:21:00,42.0,27.0,30.22,ESE,122,1.0,5.0,54,0.00,,,0.01,,2013-03-10 14:21:00,
2013-03-10 10:32:00,44.0,28.0,30.22,North,0,0.0,6.0,54,0.00,,,0.01,,2013-03-10 14:32:00,
2013-03-10 10:42:00,44.0,28.0,30.22,North,0,0.0,6.0,54,0.00,,,0.01,,2013-03-10 14:42:00,
2013-03-10 10:51:00,45.0,29.0,30.23,West,267,2.0,5.0,53,0.00,,,0.01,,2013-03-10 14:51:00,
2013-03-10 11:01:00,45.0,28.0,30.22,WSW,250,2.0,10.0,52,0.00,,,0.01,,2013-03-10 15:01:00,
2013-03-10 11:11:00,45.0,28.0,30.22,WSW,250,2.0,10.0,52,0.00,,,0.01,,2013-03-10 15:11:00,
2013-03-10 11:21:00,45.0,28.0,30.23,West,274,1.0,7.0,52,0.00,,,0.01,,2013-03-10 15:21:00,
2013-03-10 11:32:00,46.0,30.0,30.23,West,267,2.0,5.0,54,0.00,,,0.01,,2013-03-10 15:32:00,
2013-03-10 11:42:00,46.0,30.0,30.23,West,267,2.0,5.0,54,0.00,,,0.01,,2013-03-10 15:42:00,
2013-03-10 11:52:00,46.0,30.0,30.22,West,276,2.0,5.0,53,0.00,,,0.01,,2013-03-10 15:52:00,
2013-03-10 12:12:00,46.0,30.0,30.22,West,281,2.0,4.0,54,0.00,,,0.01,,2013-03-10 16:12:00,
2013-03-10 12:21:00,46.0,30.0,30.21,WSW,241,1.0,6.0,53,0.00,,,0.01,,2013-03-10 16:21:00,
2013-03-10 12:32:00,46.0,30.0,30.21,West,274,1.0,4.0,54,0.00,,,0.00,,2013-03-10 16:32:00,
2013-03-10 12:41:00,46.0,30.0,30.21,West,274,1.0,4.0,54,0.00,,,0.00,,2013-03-10 16:41:00,
2013-03-10 12:52:00,46.0,30.0,30.21,West,273,2.0,4.0,54,0.00,,,0.00,,2013-03-10 16:52:00,
2013-03-10 13:01:00,46.0,30.0,30.21,West,273,2.0,4.0,54,0.00,,,0.00,,2013-03-10 17:01:00,
2013-03-10 13:11:00,46.0,30.0,30.21,West,273,2.0,4.0,54,0.00,,,0.00,,2013-03-10 17:11:00,
2013-03-10 13:21:00,49.0,32.0,30.20,West,280,1.0,6.0,52,0.00,,,0.00,,2013-03-10 17:21:00,
2013-03-10 13:31:00,49.0,32.0,30.20,West,272,2.0,6.0,51,0.00,,,0.00,,2013-03-10 17:31:00,
2013-03-10 13:41:00,49.0,32.0,30.20,West,272,2.0,6.0,51,0.00,,,0.00,,2013-03-10 17:41:00,
2013-03-10 13:51:00,50.0,33.0,30.19,West,278,1.0,6.0,51,0.00,,,0.00,,2013-03-10 17:51:00,
2013-03-10 14:01:00,51.0,31.0,30.19,West,271,3.0,6.0,47,0.00,,,0.00,,2013-03-10 18:01:00,
2013-03-10 14:11:00,51.0,30.0,30.19,WSW,257,3.0,9.0,44,0.00,,,0.00,,2013-03-10 18:11:00,
2013-03-10 14:22:00,51.0,30.0,30.19,WSW,257,3.0,9.0,44,0.00,,,0.00,,2013-03-10 18:22:00,
2013-03-10 14:32:00,52.0,32.0,30.19,WNW,282,1.0,6.0,46,0.00,,,0.00,,2013-03-10 18:32:00,
2013-03-10 14:42:00,52.0,32.0,30.19,WNW,282,1.0,6.0,46,0.00,,,0.00,,2013-03-10 18:42:00,
2013-03-10 14:52:00,54.0,33.0,30.18,WNW,283,2.0,7.0,44,0.00,,,0.00,,2013-03-10 18:52:00,
2013-03-10 15:01:00,54.0,34.0,30.17,WNW,295,1.0,7.0,47,0.00,,,0.00,,2013-03-10 19:01:00,
2013-03-10 15:11:00,54.0,34.0,30.17,WNW,295,1.0,7.0,47,0.00,,,0.00,,2013-03-10 19:11:00,
2013-03-10 15:21:00,54.0,33.0,30.16,WNW,293,2.0,6.0,45,0.00,,,0.00,,2013-03-10 19:21:00,
2013-03-10 15:32:00,55.0,33.0,30.16,WSW,253,2.0,6.0,43,0.00,,,0.00,,2013-03-10 19:32:00,
2013-03-10 15:42:00,55.0,33.0,30.16,WSW,253,2.0,6.0,43,0.00,,,0.00,,2013-03-10 19:42:00,
2013-03-10 15:52:00,56.0,35.0,30.16,West,274,2.0,7.0,45,0.00,,,0.00,,2013-03-10 19:52:00,
2013-03-10 16:02:00,57.0,35.0,30.15,NW,308,1.0,6.0,43,0.00,,,0.00,,2013-03-10 20:02:00,
2013-03-10 16:12:00,57.0,35.0,30.15,NW,308,1.0,6.0,43,0.00,,,0.00,,2013-03-10 20:12:00,
2013-03-10 16:22:00,57.0,34.0,30.16,West,279,4.0,8.0,41,0.00,,,0.00,,2013-03-10 20:22:00,
2013-03-10 16:32:00,57.0,34.0,30.15,WNW,288,1.0,7.0,42,0.00,,,0.00,,2013-03-10 20:32:00,
2013-03-10 16:40:00,57.0,33.0,30.15,West,269,2.0,7.0,40,0.00,,,0.00,,2013-03-10 20:40:00,
2013-03-10 16:43:00,57.0,34.0,30.15,WNW,288,1.0,7.0,42,0.00,,,0.00,,2013-03-10 20:43:00,
2013-03-10 16:52:00,57.0,34.0,30.15,WNW,288,1.0,7.0,42,0.00,,,0.00,,2013-03-10 20:52:00,
2013-03-10 17:02:00,57.0,33.0,30.15,West,269,2.0,7.0,40,0.00,,,0.00,,2013-03-10 21:02:00,
2013-03-10 17:12:00,57.0,33.0,30.15,West,269,2.0,7.0,40,0.00,,,0.00,,2013-03-10 21:12:00,
2013-03-10 17:23:00,57.0,33.0,30.15,West,269,2.0,7.0,40,0.00,,,0.00,,2013-03-10 21:23:00,
2013-03-10 17:32:00,57.0,33.0,30.15,West,269,2.0,7.0,40,0.00,,,0.00,,2013-03-10 21:32:00,
2013-03-10 17:53:00,56.0,33.0,30.15,WNW,284,2.0,6.0,41,0.00,,,0.00,,2013-03-10 21:53:00,
2013-03-10 18:03:00,57.0,32.0,30.16,West,270,2.0,4.0,39,0.00,,,0.00,,2013-03-10 22:03:00,
2013-03-10 18:12:00,57.0,32.0,30.16,West,270,2.0,4.0,39,0.00,,,0.00,,2013-03-10 22:12:00,
2013-03-10 18:22:00,56.0,33.0,30.16,WNW,301,1.0,3.0,41,0.00,,,0.00,,2013-03-10 22:22:00,
2013-03-10 18:32:00,55.0,32.0,30.16,WNW,293,1.0,3.0,42,0.00,,,0.00,,2013-03-10 22:32:00,
2013-03-10 18:43:00,55.0,32.0,30.16,WNW,293,1.0,3.0,42,0.00,,,0.00,,2013-03-10 22:43:00,
2013-03-10 18:53:00,55.0,32.0,30.16,WNW,293,1.0,3.0,42,0.00,,,0.00,,2013-03-10 22:53:00,
2013-03-10 19:03:00,50.0,32.0,30.16,North,0,0.0,5.0,50,0.00,,,0.00,,2013-03-10 23:03:00,
2013-03-10 19:12:00,49.0,31.0,30.16,North,0,0.0,2.0,49,0.00,,,0.00,,2013-03-10 23:12:00,
2013-03-10 19:23:00,49.0,31.0,30.16,North,0,0.0,2.0,49,0.00,,,0.00,,2013-03-10 23:23:00,
2013-03-10 19:33:00,48.0,30.0,30.16,North,0,0.0,1.0,49,0.00,,,0.00,,2013-03-10 23:33:00,
2013-03-10 19:42:00,48.0,30.0,30.16,North,0,0.0,1.0,49,0.00,,,0.00,,2013-03-10 23:42:00,
2013-03-10 19:52:00,47.0,30.0,30.16,North,0,0.0,1.0,51,0.00,,,0.00,,2013-03-10 23:52:00,
2013-03-10 20:02:00,47.0,30.0,30.16,North,0,0.0,1.0,51,0.00,,,0.00,,2013-03-11 00:02:00,
2013-03-10 20:12:00,47.0,30.0,30.16,North,0,0.0,1.0,51,0.00,,,0.00,,2013-03-11 00:12:00,
2013-03-10 20:23:00,46.0,29.0,30.17,North,0,0.0,1.0,52,0.00,,,0.00,,2013-03-11 00:23:00,
2013-03-10 20:33:00,46.0,30.0,30.16,North,0,0.0,1.0,53,0.00,,,0.00,,2013-03-11 00:33:00,
2013-03-10 20:43:00,46.0,30.0,30.16,North,0,0.0,1.0,53,0.00,,,0.00,,2013-03-11 00:43:00,
2013-03-10 20:53:00,46.0,30.0,30.17,North,0,0.0,1.0,54,0.00,,,0.00,,2013-03-11 00:53:00,
2013-03-10 21:03:00,46.0,30.0,30.17,North,0,0.0,1.0,54,0.00,,,0.00,,2013-03-11 01:03:00,
2013-03-10 21:13:00,46.0,30.0,30.17,North,0,0.0,1.0,54,0.00,,,0.00,,2013-03-11 01:13:00,
2013-03-10 21:23:00,45.0,29.0,30.17,North,0,0.0,1.0,54,0.00,,,0.00,,2013-03-11 01:23:00,
2013-03-10 21:32:00,45.0,29.0,30.16,North,0,0.0,1.0,54,0.00,,,0.00,,2013-03-11 01:32:00,
2013-03-10 21:43:00,45.0,29.0,30.16,North,0,0.0,1.0,54,0.00,,,0.00,,2013-03-11 01:43:00,
2013-03-10 21:52:00,45.0,29.0,30.17,North,0,0.0,1.0,54,0.00,,,0.00,,2013-03-11 01:52:00,
2013-03-10 22:03:00,45.0,30.0,30.18,North,0,0.0,1.0,55,0.00,,,0.00,,2013-03-11 02:03:00,
2013-03-10 22:12:00,45.0,30.0,30.18,North,0,0.0,1.0,55,0.00,,,0.00,,2013-03-11 02:12:00,
2013-03-10 22:23:00,44.0,29.0,30.17,North,0,0.0,1.0,56,0.00,,,0.00,,2013-03-11 02:23:00,
2013-03-10 22:32:00,44.0,30.0,30.16,North,0,0.0,1.0,57,0.00,,,0.00,,2013-03-11 02:32:00,
2013-03-10 22:42:00,44.0,30.0,30.16,North,0,0.0,1.0,57,0.00,,,0.00,,2013-03-11 02:42:00,
2013-03-10 22:52:00,44.0,30.0,30.17,North,0,0.0,3.0,57,0.00,,,0.00,,2013-03-11 02:52:00,
2013-03-10 23:02:00,45.0,30.0,30.17,WSW,247,1.0,9.0,55,0.00,,,0.00,,2013-03-11 03:02:00,
2013-03-10 23:12:00,45.0,30.0,30.17,WSW,247,1.0,9.0,55,0.00,,,0.00,,2013-03-11 03:12:00,
2013-03-10 23:22:00,45.0,29.0,30.17,North,0,0.0,5.0,54,0.00,,,0.00,,2013-03-11 03:22:00,
2013-03-10 23:32:00,45.0,30.0,30.16,North,0,0.0,6.0,56,0.00,,,0.00,,2013-03-11 03:32:00,
2013-03-10 23:42:00,45.0,30.0,30.16,North,0,0.0,6.0,56,0.00,,,0.00,,2013-03-11 03:42:00,
2013-03-10 23:52:00,44.0,29.0,30.16,North,0,0.0,3.0,56,0.00,,,0.00,,2013-03-11 03:52:00,